[[{"header":{"parameterUnit":"m.s-1","parameterCategory":1,"la1":30.2992,"la2":30.254,"lo1":-89.0895,"lo2":-89.0443,"dy":0.0025,"dx":0.0025,"nx":19,"ny":19,"refTime":"2026-05-08T09:00:00:Z","depth":0,"parameterNumber":2,"parameterNumberName":"U-component_of_WINDS"},"data":[0,0,0,-1.7098,-1.7101,-1.724,-1.7241,-1.7401,-1.7402,0,0,0,0,0,0,0,0,0,0,0,-1.7045,-1.7045,-1.7098,-1.7101,-1.724,-1.7241,-1.7401,-1.7402,0,0,0,0,0,0,0,0,0,0,0,-1.7044,-1.7045,-1.7046,-1.7101,-1.724,-1.7241,-1.7401,-1.7302,0,0,0,0,0,0,0,0,0,0,-1.717,-1.7109,-1.7045,-1.7046,-1.7102,-1.724,-1.7241,-1.7298,-1.7308,-1.733,0,-1.7344,0,-1.7376,-1.7412,-1.7412,0,0,0,-1.7111,-1.71,-1.7148,-1.7046,-1.7103,-1.724,-1.718,-1.7304,-1.7316,-1.7344,-1.7347,-1.7353,-1.7378,-1.7413,-1.7413,-1.7501,-1.75,0,0,-1.7103,-1.7064,-1.714,-1.7155,-1.7131,-1.7175,-1.7184,-1.7311,-1.7313,-1.7348,-1.7358,-1.7381,-1.7414,-1.7415,-1.7501,-1.7501,0,0,0,-1.7074,-1.7058,-1.7103,-1.7148,-1.7174,-1.7179,-1.7189,-1.7307,-1.7325,-1.7359,-1.7383,-1.7415,-1.7416,-1.7501,-1.7501,-1.7458,0,0,0,-1.707,-1.7041,-1.71,-1.7077,-1.7171,-1.7242,-1.7182,-1.7317,-1.7332,-1.7382,-1.7415,-1.7418,-1.7501,-1.7501,-1.746,-1.7445,0,0,0,-1.704,-1.7038,-1.7053,-1.7074,-1.7133,-1.7241,-1.7267,-1.7321,-1.7346,-1.7412,-1.7418,-1.7501,-1.7501,-1.7461,-1.7448,-1.7456,0,0,0,-1.6996,-1.7016,-1.7052,-1.7083,-1.7131,-1.7213,-1.7266,-1.733,-1.7382,-1.7415,-1.7501,-1.7501,-1.7461,-1.7449,-1.7457,-1.7455,-1.745,0,0,-1.6999,-1.7015,-1.7036,-1.7073,-1.7138,-1.7195,-1.7256,-1.7342,-1.7385,-1.746,-1.7463,-1.7459,-1.7448,-1.7456,-1.7441,-1.7437,0,0,0,-1.7024,-1.7038,-1.7064,-1.711,-1.7175,-1.7229,-1.731,-1.7342,-1.7407,-1.7415,-1.7466,-1.7461,-1.7467,-1.7468,-1.7465,-1.7472,-1.7499,-1.75,-1.75,-1.6972,-1.7024,-1.7062,-1.7131,-1.7175,-1.7257,-1.7298,-1.7355,-1.7398,-1.7408,-1.7431,-1.7415,-1.7414,-1.7412,-1.742,-1.7435,-1.7435,-1.7435,-1.7434,-1.698,-1.7008,-1.7061,-1.7117,-1.7172,-1.7221,-1.73,-1.7328,-1.7382,-1.7403,-1.7411,-1.7429,-1.7406,-1.7416,-1.7432,-1.7432,-1.7433,-1.7433,-1.7433,-1.6951,-1.6974,-1.701,-1.7081,-1.713,-1.7201,-1.7248,-1.7298,-1.7346,-1.7354,-1.7383,-1.7384,-1.739,-1.7364,-1.7364,-1.7364,-1.7364,-1.7364,-1.7364,-1.6906,-1.6949,-1.6982,-1.7051,-1.7086,-1.7139,-1.722,-1.7258,-1.7311,-1.7344,-1.7345,-1.7384,-1.7394,-1.7395,-1.7364,-1.7364,-1.7364,-1.7364,-1.7364,-1.6894,-1.6904,-1.6955,-1.699,-1.7074,-1.7119,-1.7182,-1.7252,-1.729,-1.7312,-1.735,-1.7349,-1.737,-1.7373,-1.7374,-1.7339,-1.7339,-1.7339,-1.7339,-1.6869,-1.6884,-1.6946,-1.6999,-1.7056,-1.7117,-1.7174,-1.7237,-1.7305,-1.7331,-1.7344,-1.735,-1.735,-1.7371,-1.7374,-1.7375,-1.7341,-1.7342,-1.7342,-1.6864,-1.6886,-1.6924,-1.6987,-1.7056,-1.7115,-1.7169,-1.7229,-1.7308,-1.7343,-1.7353,-1.7353,-1.7363,-1.7364,-1.7398,-1.7402,-1.7406,0,0]},{"header":{"parameterUnit":"m.s-1","parameterCategory":1,"la1":30.2992,"la2":30.254,"lo1":-89.0895,"lo2":-89.0443,"dy":0.0025,"dx":0.0025,"nx":19,"ny":19,"refTime":"2026-05-08T09:00:00:Z","depth":0,"parameterNumber":3,"parameterNumberName":"V-component_of_WINDS"},"data":[0,0,0,4.4902,4.4907,4.513,4.5131,4.5408,4.541,0,0,0,0,0,0,0,0,0,0,0,4.4834,4.4836,4.4902,4.4907,4.513,4.5131,4.5407,4.541,0,0,0,0,0,0,0,0,0,0,0,4.4833,4.4836,4.4838,4.4908,4.5129,4.5131,4.5407,4.5241,0,0,0,0,0,0,0,0,0,0,4.5026,4.4962,4.4835,4.4838,4.4909,4.5129,4.5131,4.5233,4.5251,4.5305,0,4.5354,0,4.5387,4.5429,4.543,0,0,0,4.4908,4.4947,4.5009,4.4838,4.4911,4.5129,4.503,4.5243,4.5264,4.5329,4.5358,4.5368,4.5391,4.543,4.5432,4.5742,4.5743,0,0,4.4896,4.4873,4.4994,4.5022,4.499,4.5022,4.5036,4.5256,4.5285,4.5359,4.5375,4.5396,4.5432,4.5434,4.5741,4.5742,0,0,0,4.486,4.4864,4.4921,4.501,4.5051,4.5029,4.5045,4.5275,4.5296,4.5378,4.5399,4.5434,4.5437,4.5739,4.5741,4.5789,0,0,0,4.4853,4.4843,4.4915,4.4903,4.5047,4.5167,4.5059,4.5281,4.5306,4.5398,4.5434,4.544,4.5738,4.574,4.5785,4.5816,0,0,0,4.482,4.4839,4.4871,4.4902,4.4997,4.5164,4.5197,4.5287,4.5319,4.543,4.5441,4.5737,4.574,4.5781,4.5809,4.5891,0,0,0,4.4778,4.491,4.4871,4.5026,4.4995,4.5192,4.5196,4.5343,4.5444,4.5435,4.5738,4.5741,4.5779,4.5805,4.5886,4.5956,4.5983,0,0,4.4931,4.4927,4.502,4.4992,4.5191,4.516,4.5365,4.5478,4.5508,4.5662,4.567,4.5786,4.5808,4.589,4.6141,4.6162,0,0,0,4.506,4.5126,4.5184,4.528,4.5371,4.545,4.5535,4.5577,4.5708,4.5583,4.5838,4.5852,4.5901,4.5935,4.5953,4.5997,4.5756,4.5755,4.5755,4.5242,4.5276,4.5431,4.5491,4.5584,4.567,4.5747,4.5818,4.5824,4.5883,4.5929,4.6077,4.6117,4.6131,4.6175,4.5968,4.5968,4.5968,4.5969,4.5468,4.5568,4.5573,4.5726,4.5759,4.5887,4.5974,4.5974,4.6096,4.6045,4.609,4.6032,4.6153,4.6194,4.5973,4.5972,4.5971,4.5971,4.5971,4.5592,4.5645,4.5695,4.5837,4.5942,4.5997,4.6115,4.6141,4.6166,4.621,4.6261,4.6261,4.6263,4.6233,4.6233,4.6234,4.6234,4.6235,4.6235,4.5701,4.5755,4.5853,4.596,4.6025,4.6113,4.62,4.6264,4.6341,4.635,4.6351,4.635,4.6159,4.611,4.6243,4.6242,4.6241,4.624,4.6239,4.5919,4.5874,4.6024,4.6089,4.6217,4.6319,4.6351,4.6478,4.6534,4.6591,4.6582,4.6436,4.6433,4.6419,4.6379,4.6574,4.6574,4.6574,4.6574,4.6024,4.6025,4.6185,4.6287,4.639,4.6433,4.6601,4.6669,4.6732,4.6768,4.6744,4.6693,4.6677,4.6684,4.6664,4.6627,4.6881,4.6881,4.6882,4.616,4.6172,4.6311,4.6374,4.6475,4.6561,4.6719,4.6834,4.6896,4.6895,4.6798,4.6785,4.6703,4.6674,4.6671,4.664,4.6573,0,0]}]]